This is the latest recevied weather packets stored in our database for station/object N6GPM. If no packets are shown the sender has not sent any weather packets the latest 10 day(s).
| Time | Temp. | Humidity | Pressure | Rain* | Wind** | Luminosity | Snow |
|---|---|---|---|---|---|---|---|
| 1788287979 | 29.44° C | 31% | 1019.8 hPa | 0 mm | - | 954 W/m² | - |
| 1788287679 | 29.44° C | 23% | 1020 hPa | 0 mm | - | 950 W/m² | - |
| 1788287375 | 28.33° C | 25% | 1019.9 hPa | 0 mm | - | 935 W/m² | - |
| 1788287070 | 27.78° C | 25% | 1020.1 hPa | 0 mm | - | 932 W/m² | - |
| 1788286765 | 27.78° C | 23% | 1020.1 hPa | 0 mm | - | 922 W/m² | - |
| 1788286460 | 28.33° C | 23% | 1020 hPa | 0 mm | - | 914 W/m² | - |
| 1788286159 | 28.33° C | 24% | 1020.1 hPa | 0 mm | - | 904 W/m² | - |
| 1788285858 | 28.33° C | 27% | 1020.2 hPa | 0 mm | - | 886 W/m² | - |
| 1788285557 | 27.22° C | 30% | 1020.1 hPa | 0 mm | - | 876 W/m² | - |
| 1788285252 | 26.67° C | 31% | 1020.1 hPa | 0 mm | - | 860 W/m² | - |
| 1788284947 | 26.67° C | 32% | 1020.2 hPa | 0 mm | - | 849 W/m² | - |
| 1788284643 | 27.22° C | 31% | 1020.3 hPa | 0 mm | - | 834 W/m² | - |
| 1788284338 | 26.67° C | 34% | 1020.2 hPa | 0 mm | - | 824 W/m² | - |
| 1788284033 | 25.56° C | 35% | 1020.1 hPa | 0 mm | - | 811 W/m² | - |
| 1788283730 | 25.56° C | 38% | 1020 hPa | 0 mm | - | 800 W/m² | - |
| 1788283429 | 26.67° C | 35% | 1020.1 hPa | 0 mm | - | 791 W/m² | - |
| 1788283127 | 25° C | 37% | 1019.8 hPa | 0 mm | - | 773 W/m² | - |
| 1788282826 | 25° C | 38% | 1020.2 hPa | 0 mm | - | 757 W/m² | - |
| 1788282524 | 23.89° C | 42% | 1019.9 hPa | 0 mm | - | 741 W/m² | - |
| 1788282220 | 24.44° C | 41% | 1020.1 hPa | 0 mm | - | 719 W/m² | - |
| 1788281914 | 24.44° C | 42% | 1020 hPa | 0 mm | - | 703 W/m² | - |
| 1788281608 | 23.89° C | 43% | 1019.9 hPa | 0 mm | - | 687 W/m² | - |
| 1788281305 | 25° C | 41% | 1019.8 hPa | 0 mm | - | 668 W/m² | - |
| 1788281000 | 23.89° C | 43% | 1019.8 hPa | 0 mm | - | 652 W/m² | - |
| 1788280694 | 23.89° C | 44% | 1019.9 hPa | 0 mm | - | 637 W/m² | - |
* Rain latest hour (hover to see other rain measurements)
** Current wind speed in m/s (hover to see current wind gust speed)